[[{"header":{"parameterUnit":"m.s-1","parameterCategory":1,"la1":30.2991,"la2":30.254,"lo1":-89.0895,"lo2":-89.0444,"dy":0.0017,"dx":0.0017,"nx":28,"ny":28,"refTime":"2023-10-01T09:00:00:Z","depth":0,"parameterNumber":2,"parameterNumberName":"U-component_of_WINDS"},"data":[0,0,0,0,0,0,0,0,0,0,0,0,0,0,0,0,0,0,0,0,0,0,0,0,0,0,0,0,0,0,0,0,0,0,0,0,0,0,0,0,0,0,0,0,0,0,0,0,0,0,0,0,0,0,0,0,0,0,-6.5673,-6.5673,0,-6.5686,-6.5686,-6.5686,-6.5568,-6.5564,-6.5561,-6.5558,-6.5572,-6.5575,-6.5579,0,0,0,0,0,0,0,0,0,0,0,0,0,-6.5551,-6.5554,-6.5673,-6.5674,-6.5674,-6.5686,-6.5686,-6.5686,-6.5568,-6.5564,-6.556,-6.5557,-6.5571,-6.5575,-6.5579,0,0,0,0,0,0,0,0,0,0,0,0,0,-6.5588,-6.5555,-6.5673,-6.5616,-6.5611,-6.5686,-6.5686,-6.5686,-6.5569,-6.5564,-6.5559,-6.5555,-6.557,-6.5575,-6.558,-6.5709,0,0,-6.5595,-6.5598,0,0,0,0,0,0,0,0,-6.5586,-6.5592,-6.5625,-6.562,-6.5615,-6.562,-6.5648,-6.5694,-6.557,-6.5585,-6.5558,-6.5552,-6.5592,-6.5595,-6.5608,-6.571,-6.5711,-6.5596,-6.5599,-6.5601,-6.5603,0,0,0,0,0,0,0,-6.5584,-6.5591,-6.5678,-6.5625,-6.5619,-6.5591,-6.5591,-6.5656,-6.5616,-6.5583,-6.5575,-6.5578,-6.5589,-6.5604,-6.5608,-6.5711,-6.5596,-6.56,-6.5603,-6.5605,-6.5923,-6.5928,0,0,0,0,0,0,-6.5588,-6.559,-6.5678,-6.5678,-6.5588,-6.5597,-6.5597,-6.5623,-6.5615,-6.5609,-6.5582,-6.5572,-6.5597,-6.5602,-6.5608,-6.5761,-6.5601,-6.5606,-6.5609,-6.5918,-6.5924,-6.593,0,0,0,0,0,0,-6.5586,-6.5597,-6.5677,-6.5632,-6.564,-6.5605,-6.5635,-6.5626,-6.5641,-6.5614,-6.5606,-6.5605,-6.5593,-6.56,-6.5686,-6.576,-6.5608,-6.5613,-6.5912,-6.592,-6.5927,-6.6068,0,0,0,0,0,0,-6.5583,-6.5597,-6.5645,-6.5634,-6.5643,-6.5754,-6.564,-6.563,-6.565,-6.5637,-6.5633,-6.5628,-6.559,-6.5679,-6.5691,-6.5764,-6.5617,-6.5905,-6.5915,-6.5925,-6.6056,-6.608,-6.6099,0,0,0,0,0,-6.5579,-6.5684,-6.5648,-6.566,-6.5702,-6.5759,-6.5764,-6.5718,-6.5656,-6.5705,-6.5688,-6.5628,-6.575,-6.5688,-6.5701,-6.5777,-6.59,-6.5912,-6.5924,-6.6047,-6.6075,-6.6099,0,0,0,0,0,0,-6.5704,-6.5681,-6.5641,-6.5745,-6.5755,-6.5739,-6.5798,-6.5749,-6.5777,-6.5764,-6.5707,-6.5707,-6.5802,-6.5798,-6.573,-6.5904,-6.5814,-6.5829,-6.5903,-6.593,-6.5951,-6.595,-6.5621,0,0,0,0,0,-6.5744,-6.5792,-6.5769,-6.5863,-6.587,-6.5834,-6.5857,-6.5821,-6.5829,-6.5833,-6.5821,-6.5832,-6.5873,-6.5901,-6.5937,-6.6055,-6.6054,-6.6114,-6.6136,-6.6153,-6.6167,-6.6232,-6.626,-6.597,-6.597,-6.597,0,0,-6.5827,-6.582,-6.5853,-6.5888,-6.5891,-6.5943,-6.5838,-6.5896,-6.5935,-6.5841,-6.5921,-6.5915,-6.5923,-6.6026,-6.6071,-6.6025,-6.6247,-6.6169,-6.6183,-6.6188,-6.6248,-6.6275,-6.63,-6.5978,-6.5977,-6.5975,0,0,-6.6004,-6.6003,-6.6082,-6.6088,-6.6094,-6.607,-6.609,-6.6082,-6.6073,-6.6153,-6.6085,-6.613,-6.6201,-6.621,-6.6225,-6.6409,-6.6355,-6.6422,-6.6535,-6.6599,-6.6622,-6.6642,-6.671,-6.6734,-6.6436,-6.6437,-6.6437,0,-6.6105,-6.6179,-6.6129,-6.6193,-6.6211,-6.613,-6.6211,-6.6219,-6.6238,-6.6253,-6.6202,-6.6291,-6.629,-6.6396,-6.6441,-6.6455,-6.6477,-6.6422,-6.6623,-6.6642,-6.666,-6.6724,-6.675,-6.6445,-6.6444,-6.6443,-6.6442,0,-6.6305,-6.6358,-6.6422,-6.6442,-6.6468,-6.654,-6.6502,-6.6534,-6.6497,-6.6479,-6.6563,-6.656,-6.6595,-6.6617,-6.6581,-6.6719,-6.6691,-6.6632,-6.6541,-6.6697,-6.6756,-6.678,-6.6457,-6.6454,-6.6451,-6.6449,0,0,-6.656,-6.6553,-6.6578,-6.6587,-6.659,-6.663,-6.67,-6.6734,-6.6764,-6.678,-6.6839,-6.6902,-6.6849,-6.6865,-6.683,-6.6886,-6.7035,-6.6821,-6.682,-6.6862,-6.7189,-6.7234,-6.7263,-6.7,-6.7004,-6.7008,-6.7189,0,-6.6733,-6.6851,-6.6809,-6.693,-6.698,-6.6905,-6.6966,-6.6975,-6.6961,-6.7002,-6.6986,-6.7033,-6.6958,-6.6968,-6.702,-6.7006,-6.71,-6.6992,-6.7055,-6.7058,-6.7056,-6.7294,-6.734,-6.7512,-6.7212,-6.7216,-6.7218,0,-6.6951,-6.6977,-6.7103,-6.71,-6.7119,-6.7175,-6.7204,-6.7244,-6.7254,-6.724,-6.726,-6.7214,-6.7284,-6.7193,-6.729,-6.7218,-6.7241,-6.7239,-6.7244,-6.7249,-6.7148,-6.7306,-6.7565,-6.7591,-6.7254,-6.7251,-6.7249,0,-6.7126,-6.7192,-6.7277,-6.7287,-6.7285,-6.7327,-6.7328,-6.7333,-6.7357,-6.7384,-6.74,-6.7434,-6.7453,-6.7482,-6.7447,-6.7384,-6.7551,-6.7456,-6.7542,-6.7544,-6.758,-6.7579,-6.7848,-6.7595,-6.7594,-6.7594,-6.7593,0,-6.7324,-6.7405,-6.7356,-6.7408,-6.7497,-6.7449,-6.7539,-6.7532,-6.7538,-6.7589,-6.7526,-6.7576,-6.7526,-6.7572,-6.7545,-6.7631,-6.7639,-6.7631,-6.7623,-6.7637,-6.7639,-6.7652,-6.764,-6.7601,-6.7599,-6.7598,-6.7597,0,-6.7534,-6.7504,-6.7592,-6.7584,-6.7584,-6.765,-6.7644,-6.7693,-6.7675,-6.774,-6.7753,-6.7726,-6.7776,-6.7744,-6.7795,-6.7777,-6.789,-6.7865,-6.7887,-6.7881,-6.7969,-6.7962,-6.8257,-6.8294,-6.8016,-6.8019,-6.8021,0,-6.7663,-6.7723,-6.7722,-6.7752,-6.7758,-6.7806,-6.7831,-6.7787,-6.7816,-6.7834,-6.7882,-6.7927,-6.796,-6.8045,-6.8031,-6.807,-6.8047,-6.8148,-6.8052,-6.8065,-6.805,-6.8047,-6.8054,-6.8167,-6.817,-6.8173,-6.8175,0,-6.7895,-6.7878,-6.7917,-6.7951,-6.7983,-6.8008,-6.8028,-6.8056,-6.8013,-6.8049,-6.81,-6.8126,-6.8179,-6.8226,-6.826,-6.8262,-6.8213,-6.8206,-6.8228,-6.8243,-6.8254,-6.8251,-6.7941,-6.8199,-6.8196,-6.8195,-6.8193,-6.8192,-6.8069,-6.8121,-6.8129,-6.8175,-6.8185,-6.8206,-6.8253,-6.8241,-6.8283,-6.8323,-6.8295,-6.8356,-6.8367,-6.8408,-6.8417,-6.8466,-6.8425,-6.8457,-6.8465,-6.8474,-6.8487,-6.8246,-6.8472,-6.8471,-6.847,-6.847,-6.8469,0,-6.83,-6.8302,-6.8345,-6.8375,-6.8412,-6.8362,-6.8382,-6.8417,-6.8471,-6.8486,-6.8521,-6.8582,-6.8627,-6.8618,-6.8659,-6.87,-6.8679,-6.8713,-6.871,-6.8712,-6.852,-6.8497,-6.873,-6.873,-6.873,-6.873,-6.8729,-6.8729,-6.8424,-6.8509,-6.8494,-6.8584,-6.8586,-6.8645,-6.8662,-6.8682,-6.8693,-6.8763,-6.8801,-6.8794,-6.88,-6.8842,-6.8883,-6.8879,-6.8898,-6.8941,-6.8929,-6.875,-6.8725,-6.87,-6.8678,-6.8945,-6.8945,-6.9117,-6.9118,-6.9119]},{"header":{"parameterUnit":"m.s-1","parameterCategory":1,"la1":30.2991,"la2":30.254,"lo1":-89.0895,"lo2":-89.0444,"dy":0.0017,"dx":0.0017,"nx":28,"ny":28,"refTime":"2023-10-01T09:00:00:Z","depth":0,"parameterNumber":3,"parameterNumberName":"V-component_of_WINDS"},"data":[0,0,0,0,0,0,0,0,0,0,0,0,0,0,0,0,0,0,0,0,0,0,0,0,0,0,0,0,0,0,0,0,0,0,0,0,0,0,0,0,0,0,0,0,0,0,0,0,0,0,0,0,0,0,0,0,0,0,-0.4004,-0.4004,0,-0.4013,-0.4013,-0.4013,-0.3948,-0.3946,-0.3944,-0.3943,-0.3957,-0.3959,-0.3961,0,0,0,0,0,0,0,0,0,0,0,0,0,-0.3934,-0.3935,-0.4004,-0.4004,-0.4004,-0.4012,-0.4013,-0.4013,-0.3948,-0.3946,-0.3944,-0.3942,-0.3956,-0.3959,-0.3961,0,0,0,0,0,0,0,0,0,0,0,0,0,-0.3956,-0.3936,-0.4004,-0.3973,-0.397,-0.4012,-0.4013,-0.4013,-0.3949,-0.3946,-0.3943,-0.3941,-0.3955,-0.3958,-0.3961,-0.4036,0,0,-0.3971,-0.3972,0,0,0,0,0,0,0,0,-0.3954,-0.3958,-0.3977,-0.3975,-0.3972,-0.3976,-0.3993,-0.4021,-0.3949,-0.3957,-0.3943,-0.3939,-0.3966,-0.3968,-0.3976,-0.4036,-0.4037,-0.3971,-0.3973,-0.3974,-0.3975,0,0,0,0,0,0,0,-0.3953,-0.3958,-0.4007,-0.3977,-0.3974,-0.3959,-0.3959,-0.3998,-0.3977,-0.3956,-0.3951,-0.3953,-0.3964,-0.3973,-0.3976,-0.4037,-0.3971,-0.3974,-0.3976,-0.3977,-0.4159,-0.4162,0,0,0,0,0,0,-0.3955,-0.3957,-0.4007,-0.4007,-0.3956,-0.3963,-0.3963,-0.3978,-0.3976,-0.3973,-0.3955,-0.395,-0.3969,-0.3972,-0.3976,-0.4063,-0.3974,-0.3977,-0.3979,-0.4156,-0.416,-0.4163,0,0,0,0,0,0,-0.3954,-0.396,-0.4007,-0.3981,-0.3985,-0.3967,-0.3984,-0.3979,-0.3988,-0.3976,-0.3972,-0.3968,-0.3967,-0.3971,-0.4021,-0.4063,-0.3979,-0.3982,-0.4152,-0.4157,-0.4161,-0.4239,0,0,0,0,0,0,-0.3952,-0.396,-0.3988,-0.3982,-0.3987,-0.4051,-0.3987,-0.3981,-0.3993,-0.3986,-0.3987,-0.3984,-0.3965,-0.4017,-0.4024,-0.4066,-0.3984,-0.4149,-0.4154,-0.416,-0.4233,-0.4245,-0.4256,0,0,0,0,0,-0.395,-0.401,-0.3989,-0.3996,-0.4021,-0.4053,-0.4057,-0.4032,-0.3997,-0.4025,-0.4016,-0.3984,-0.4056,-0.4022,-0.403,-0.4073,-0.4146,-0.4153,-0.4159,-0.4227,-0.4243,-0.4256,0,0,0,0,0,0,-0.4024,-0.4009,-0.3986,-0.4046,-0.4051,-0.4042,-0.4077,-0.4049,-0.4066,-0.4059,-0.4029,-0.4029,-0.4084,-0.4083,-0.4045,-0.4145,-0.4095,-0.4104,-0.4144,-0.4159,-0.4171,-0.4171,-0.3987,0,0,0,0,0,-0.4047,-0.4073,-0.4059,-0.4114,-0.4117,-0.4097,-0.411,-0.409,-0.4095,-0.4097,-0.4093,-0.41,-0.4124,-0.4141,-0.4162,-0.4231,-0.4231,-0.4264,-0.4276,-0.4286,-0.4295,-0.4331,-0.4347,-0.4185,-0.4184,-0.4184,0,0,-0.4096,-0.4091,-0.411,-0.4128,-0.413,-0.4159,-0.4099,-0.4133,-0.4155,-0.4103,-0.4149,-0.4146,-0.4152,-0.4211,-0.4237,-0.4212,-0.4339,-0.4294,-0.4302,-0.4306,-0.434,-0.4355,-0.4369,-0.4189,-0.4188,-0.4188,0,0,-0.42,-0.4198,-0.4243,-0.4245,-0.4247,-0.4233,-0.4244,-0.4239,-0.4234,-0.4279,-0.4241,-0.4266,-0.4309,-0.4314,-0.4323,-0.4426,-0.4398,-0.4434,-0.4498,-0.4534,-0.4547,-0.4558,-0.4596,-0.461,-0.4442,-0.4442,-0.4442,0,-0.4261,-0.4302,-0.427,-0.4306,-0.4316,-0.4267,-0.4314,-0.4318,-0.4328,-0.4336,-0.4307,-0.4358,-0.4359,-0.4419,-0.4444,-0.4452,-0.4464,-0.4436,-0.4547,-0.4558,-0.4568,-0.4604,-0.4619,-0.4447,-0.4446,-0.4446,-0.4445,0,-0.4377,-0.4406,-0.4442,-0.4451,-0.4465,-0.4506,-0.4481,-0.4499,-0.4477,-0.4466,-0.4512,-0.4511,-0.4531,-0.4543,-0.4523,-0.4601,-0.4585,-0.4552,-0.4502,-0.4588,-0.4622,-0.4636,-0.4453,-0.4452,-0.445,-0.4449,0,0,-0.4532,-0.452,-0.4534,-0.4538,-0.4536,-0.4558,-0.4596,-0.4614,-0.4631,-0.4638,-0.4671,-0.4706,-0.4675,-0.4685,-0.4664,-0.4695,-0.4779,-0.4658,-0.4658,-0.4682,-0.4866,-0.4893,-0.4909,-0.4758,-0.476,-0.4762,-0.4866,0,-0.4634,-0.4699,-0.467,-0.4738,-0.4765,-0.4718,-0.4751,-0.4754,-0.4744,-0.4766,-0.4755,-0.4782,-0.4737,-0.4743,-0.4771,-0.4762,-0.4815,-0.4754,-0.479,-0.4792,-0.4793,-0.4926,-0.4955,-0.5053,-0.4878,-0.4881,-0.4882,0,-0.4764,-0.4775,-0.4845,-0.4837,-0.4847,-0.4878,-0.4892,-0.4913,-0.4915,-0.4905,-0.4915,-0.4886,-0.4925,-0.4872,-0.4925,-0.4884,-0.4896,-0.4894,-0.4897,-0.4902,-0.4845,-0.4938,-0.5084,-0.5099,-0.4902,-0.4901,-0.4899,0,-0.4872,-0.4904,-0.495,-0.4954,-0.4946,-0.4969,-0.4966,-0.4965,-0.4977,-0.4989,-0.4997,-0.5014,-0.5024,-0.5038,-0.5016,-0.4979,-0.5072,-0.5018,-0.5067,-0.5068,-0.5092,-0.5091,-0.5245,-0.5095,-0.5095,-0.5095,-0.5094,0,-0.4992,-0.5037,-0.4999,-0.5028,-0.5077,-0.5043,-0.5093,-0.5086,-0.5085,-0.5112,-0.5072,-0.5099,-0.5066,-0.509,-0.5072,-0.5119,-0.5123,-0.5118,-0.5113,-0.5123,-0.5124,-0.5134,-0.5127,-0.5099,-0.5098,-0.5097,-0.5096,0,-0.5123,-0.5098,-0.5146,-0.5132,-0.513,-0.5167,-0.5157,-0.5183,-0.5168,-0.5204,-0.521,-0.5188,-0.5214,-0.5191,-0.5217,-0.5205,-0.5268,-0.5252,-0.5267,-0.5264,-0.5316,-0.5312,-0.5483,-0.5504,-0.5339,-0.534,-0.5342,0,-0.5202,-0.5235,-0.5225,-0.5239,-0.5239,-0.5263,-0.5274,-0.5242,-0.5256,-0.526,-0.5286,-0.5307,-0.5324,-0.5367,-0.5354,-0.5373,-0.5359,-0.5417,-0.5362,-0.5371,-0.5363,-0.5362,-0.5366,-0.543,-0.5432,-0.5434,-0.5435,0,-0.5346,-0.5332,-0.5349,-0.5362,-0.5377,-0.5386,-0.5392,-0.5407,-0.5373,-0.5391,-0.5415,-0.5428,-0.5452,-0.5475,-0.5489,-0.5488,-0.5457,-0.5452,-0.5465,-0.5477,-0.5485,-0.5483,-0.5301,-0.5449,-0.5448,-0.5447,-0.5446,-0.5445,-0.5455,-0.5483,-0.5479,-0.55,-0.55,-0.5507,-0.5531,-0.5518,-0.5538,-0.5554,-0.5533,-0.5564,-0.5564,-0.558,-0.5582,-0.5606,-0.5582,-0.56,-0.5606,-0.5611,-0.562,-0.5478,-0.5608,-0.5608,-0.5608,-0.5607,-0.5607,0,-0.5599,-0.5594,-0.5613,-0.5622,-0.5638,-0.5603,-0.5608,-0.5625,-0.5652,-0.5653,-0.5669,-0.5697,-0.5718,-0.5706,-0.5725,-0.5746,-0.5733,-0.5753,-0.5752,-0.5753,-0.5639,-0.5627,-0.5763,-0.5763,-0.5763,-0.5763,-0.5763,-0.5763,-0.5676,-0.5721,-0.5706,-0.5751,-0.5745,-0.5774,-0.5779,-0.5785,-0.5786,-0.5819,-0.5836,-0.5826,-0.5823,-0.584,-0.5858,-0.5854,-0.5864,-0.589,-0.5881,-0.5776,-0.5761,-0.5746,-0.5735,-0.5891,-0.5892,-0.5993,-0.5994,-0.5994]}]]